Tracking 30102 objects as of 12-Dec-2024
HD Live streaming from Space Station
objects crossing your sky now

COSMOS 2494 (SKRL 756)

Track COSMOS 2494 (SKRL 756) now!
10-day predictions
COSMOS 2494 (SKRL 756) is classified as:


NORAD ID: 39491
Int'l Code: 2013-078B
Perigee: 564.5 km
Apogee: 588.6 km
Inclination: 82.4 °
Period: 96.1 minutes
Semi major axis: 6947 km
RCS: Unknown
Launch date: December 28, 2013
Source: Commonwealth of Independent States (former USSR) (CIS)
Launch site: PLESETSK MISSILE AND SPACE COMPLEX (PKMTR)
Your satellite tracking list
Your tracking list is empty




NASA's NSSDC Master Catalog

Two Line Element Set (TLE):
1 39491U 13078B   24347.53920609  .00005308  00000-0  43273-3 0  9997
2 39491  82.4158  70.4144 0017391 271.6248  88.2983 14.99180261596062
Source of the keplerian elements: AFSPC